Home > Weather > Antofagasta > Past weeks

Flag for Chile Weather for the Past 2 Weeks in Antofagasta, Chile

Now
63 °F

Passing clouds.


Feels Like: 63 °F
Forecast: 58 / 69 °F
Wind: 8 mph from Southwest

Location: Antofagasta Airport

Current Time: Apr 29, 2016 at 11:51:05 AM

Latest Report: Apr 29, 2016 at 11:00 AM


Visibility: N/A

Pressure: 30.01 "Hg

Humidity: 68%

Dew Point: 52 °F

Location of AntofagastaLocation

Historic Weather in Antofagasta — Graph

°F

Antofagasta Temperature Yesterday

Maximum temperature yesterday: 68 °F (at 1:00 PM)
Minimum temperature yesterday: 54 °F (at 6:00 AM)
Average temperature yesterday: 60 °F

High & Low Weather Summary for the Past Weeks

 TemperatureHumidityPressure
High70 °F (Apr 17, 2:00 PM)94% (Apr 21, 1:00 AM)30.07 "Hg (Apr 21, 1:00 AM)
Low54 °F (Apr 27, 6:00 AM)50% (Apr 27, 2:00 PM)29.83 "Hg (Apr 15, 5:00 PM)
Average62 °F76%29.96 "Hg
* Reported Apr 14 11:00 AM — Apr 29 11:00 AM, Antofagasta, Weather by CustomWeather, © 2016

Note: Actual official high and low records may vary slightly from our data, if they occured in-between our weather recording intervals... More about our weather records

Advertising

Antofagasta Weather History for the Previous 24 Hours

Scroll right to see more
 ConditionsComfort  
Time TempWeatherWind HumidityBarometerVisibility
11:00 AM
Fri, Apr 29
63 °FPassing clouds.8 mph68%30.01 "HgN/A
10:00 AM63 °FPartly sunny.5 mph68%30.01 "HgN/A
9:00 AM61 °FPartly sunny.2 mph72%30.01 "HgN/A
8:00 AM59 °FPassing clouds.5 mph77%30.01 "HgN/A
7:00 AM59 °FPassing clouds.3 mph77%30.01 "HgN/A
6:00 AM61 °FPassing clouds.5 mph77%30.01 "HgN/A
5:00 AM61 °FOvercast.5 mph77%30.04 "HgN/A
4:00 AM61 °FOvercast.3 mph77%30.04 "HgN/A
3:00 AM61 °FOvercast.No wind72%30.07 "HgN/A
2:00 AM61 °FPassing clouds.No wind77%30.07 "HgN/A
1:00 AM61 °FPassing clouds.No wind83%30.07 "HgN/A
12:00 AM61 °FPassing clouds.No wind83%30.07 "HgN/A
11:00 PM
Thu, Apr 28
59 °FPassing clouds.No wind82%30.07 "HgN/A
10:00 PM61 °FPassing clouds.No wind77%30.04 "HgN/A
9:00 PM61 °FPassing clouds.6 mph77%30.04 "HgN/A
8:00 PM61 °FPassing clouds.8 mph77%30.01 "HgN/A
7:00 PM61 °FScattered clouds.12 mph77%30.01 "HgN/A
6:00 PM63 °FScattered clouds.13 mph73%29.98 "HgN/A
5:00 PM64 °FPassing clouds.8 mph68%29.98 "HgN/A
4:00 PM64 °FPassing clouds.13 mph68%29.98 "HgN/A
3:00 PM64 °FSunny.10 mph68%29.95 "Hg10 mi
2:00 PM64 °FSunny.10 mph64%29.98 "Hg10 mi
1:00 PM68 °FSunny.6 mph56%29.98 "Hg10 mi
12:00 PM64 °FPassing clouds.3 mph64%30.01 "HgN/A
11:00 AM63 °FScattered clouds.1 mph73%30.01 "HgN/A
Weather by CustomWeather, © 2016

See weather overviewHow to use our weather pages